{"data":{"norad_id":52857,"epoch":"2026-09-19T13:12:14.301792Z","epoch_age_seconds":150898,"freshness":"FRESH","line1":"1 52857U 22062AD  26262.55016553  .00000447  00000+0  24361-4 0  9991","line2":"2 52857  53.1600 222.5101 0001227  93.8483 266.2660 15.34386432235348","mean_motion":15.34386432,"eccentricity":0.0001227,"inclination_deg":53.16,"raan_deg":222.5101,"arg_perigee_deg":93.8483,"mean_anomaly_deg":266.266,"bstar":2.4361e-5,"rev_number":23534,"period_min":93.848587941633,"perigee_km":461.90419141397,"apogee_km":463.58294350522,"semimajor_km":6840.8805674596,"source":"CELESTRAK","updated_at":"2026-09-20T09:00:40.116239Z"}}